SB KEPS @ AMSAT $ORB07039.N 2Line Orbital Elements 07039.AMSAT
HR AMSAT ORBITAL ELEMENTS FOR AMATEUR SATELLITES IN NASA FORMAT FROM WA5QGD FORT WORTH,TX February 8, 2007 Send SUBSCRIBE KEPS/UNSUBSCRIBE KEPS to [email protected] only BID: ORB07039.N
DECODE 2-LINE ELSETS WITH THE FOLLOWING KEY: 1 AAAAAU 00 0 0 BBBBB.BBBBBBBB .CCCCCCCC 00000-0 00000-0 0 DDDZ 2 AAAAA EEE.EEEE FFF.FFFF GGGGGGG HHH.HHHH III.IIII JJ.JJJJJJJJKKKKKZ KEY: A-CATALOGNUM B-EPOCHTIME C-DECAY D-ELSETNUM E-INCLINATION F-RAAN G-ECCENTRICITY H-ARGPERIGEE I-MNANOM J-MNMOTION K-ORBITNUM Z-CHECKSUM
TO ALL RADIO AMATEURS BT
AO-07 1 07530U 74089B 07038.69544922 -.00000028 00000-0 10000-3 0 08008 2 07530 101.5357 080.4275 0012014 147.7165 212.4643 12.53572496474892 AO-10 1 14129U 83058B 07037.88685856 -.00000262 00000-0 10000-3 0 03564 2 14129 026.9440 292.7772 6051731 356.0144 000.9047 02.05870898177884 UO-11 1 14781U 84021B 07038.95079542 .00000047 00000-0 13666-4 0 02973 2 14781 098.1997 059.0901 0008176 224.5298 135.5270 14.79518939230626 RS-10/11 1 18129U 87054A 07038.82494002 .00000019 00000-0 43697-5 0 02270 2 18129 082.9275 153.8707 0012103 151.4551 208.7267 13.72783896983484 RS-15 1 23439U 94085A 07038.93616724 -.00000039 00000-0 10597-3 0 00352 2 23439 064.8133 215.9452 0162864 213.4447 145.6105 11.27551833499121 FO-29 1 24278U 96046B 07039.89589505 .00000118 00000-0 15365-3 0 4309 2 24278 098.5330 016.8722 0351290 055.8677 307.5261 13.52927783517551 SO-33 1 25509U 98061B 07038.80770317 .00000052 00000-0 -51238-6 0 8594 2 25509 031.4301 237.2254 0354756 016.2057 344.9593 14.28146783432742 AO-40 1 26609U 00072B 07038.56279797 -.00000048 00000-0 10000-3 0 08381 2 26609 004.8341 177.1697 7995676 270.1683 009.3728 01.25585934028819 VO-52 1 28650U 05017B 07038.41349014 -.00000128 00000-0 -95016-5 0 5498 2 28650 097.8460 111.9612 0026480 318.0314 041.8894 14.81260035 95208 AO-16 1 20439U 90005D 07037.61586647 -.00000002 00000-0 14498-4 0 09603 2 20439 098.1908 039.3996 0010275 212.8679 147.1871 14.31749298889860 LO-19 1 20442U 90005G 07038.93396860 -.00000065 00000-0 -93311-5 0 08914 2 20442 098.1819 050.1299 0011374 207.6914 152.3648 14.31990565890190 AO-27 1 22825U 93061C 07037.63090110 -.00000080 00000-0 -15210-4 0 06119 2 22825 098.3154 013.3170 0007572 290.6629 069.3728 14.29197945696840 IO-26 1 22826U 93061D 07038.54062031 -.00000011 00000-0 11994-4 0 3050 2 22826 098.3074 015.3087 0008079 285.3621 074.6668 14.29443932697053 PO-28 1 22829U 93061G 07037.58045312 -.00000008 00000-0 12994-4 0 05867 2 22829 098.2975 015.5770 0008830 258.8972 101.1204 14.30142111697144 GO-32 1 25397U 98043D 07038.23088682 -.00000012 00000-0 13240-4 0 02255 2 25397 098.4343 091.0129 0000583 205.6768 154.4373 14.23119978445679 MO-46 1 26548U 00057D 07038.92278194 .00000063 00000-0 25816-4 0 07192 2 26548 064.5551 222.5520 0029952 214.6751 145.2400 14.83095537344376 NO-44 1 26931U 01043C 07038.72053614 .00000236 00000-0 12455-3 0 5161 2 26931 067.0532 120.9879 0005745 278.9256 081.1198 14.29473171279591 SO-50 1 27607U 02058C 07038.49848558 .00000069 00000-0 32785-4 0 02386 2 27607 064.5592 118.7714 0039470 043.6160 316.8049 14.71225932222044 CO-55 1 27844U 03031E 07038.71112393 .00000050 00000-0 43833-4 0 9560 2 27844 098.7205 048.7706 0010585 102.7966 257.4392 14.20490156187099 CO-57 1 27848U 03031J 07038.57441610 .00000032 00000-0 35149-4 0 9184 2 27848 098.7193 047.8795 0010449 106.2381 253.9941 14.20312138187056 AO-51 1 28375U 04025K 07038.19562441 .00000015 00000-0 17470-4 0 07432 2 28375 098.1326 084.0962 0083077 216.2793 143.2743 14.40554301137002 CO-56 1 28941U 06005C 07039.56937606 .00023455 24744-5 26268-3 0 3464 2 28941 098.1502 086.7583 0245342 007.1507 353.3371 15.34446280 53671 HO-59 1 29484U 06041F 07039.52054995 .00044888 29447-5 36087-3 0 1875 2 29484 098.3073 070.6466 0244077 004.5436 355.8154 15.41204522 21194 NO-60 1 29661U 06055C 07038.95606225 .00058888 00000-0 21987-3 0 00621 2 29661 051.6443 048.9387 0009575 193.4157 166.6725 15.87302396007761 NO-61 1 29667U 06055J 07039.83962397 .00017048 00000-0 78573-4 0 481 2 29667 051.6365 045.0642 0015456 199.4206 160.6219 15.83561676 7630 NOAA-10 1 16969U 86073A 07038.61625296 -.00000023 00000-0 90920-5 0 05379 2 16969 098.7541 055.6694 0012202 181.9513 178.1617 14.27316805060742 NOAA-11 1 19531U 88089A 07038.29175365 .00000273 00000-0 16392-3 0 05237 2 19531 098.8150 129.0703 0012332 043.1114 317.1014 14.14835271947787 NOAA-12 1 21263U 91032A 07038.52324784 .00000043 00000-0 36800-4 0 00171 2 21263 098.7486 036.0115 0013624 122.8651 237.3856 14.25521737817776 MET-3/5 1 21655U 91056A 07039.85975048 .00000051 00000-0 10000-3 0 2235 2 21655 082.5548 093.6186 0013646 164.5212 195.6330 13.17010197744515 MET-2/21 1 22782U 93055A 07038.41878197 -.00000007 00000-0 -19490-4 0 07439 2 22782 082.5511 144.8659 0021074 238.2900 121.6207 13.83612987678570 OKEAN-4 1 23317U 94066A 07038.79075688 .00000142 00000-0 14724-4 0 01811 2 23317 082.5365 057.2501 0021197 322.8917 037.0831 14.82464022664886 NOAA-14 1 23455U 94089A 07038.84409037 -.00000085 00000-0 -21175-4 0 05106 2 23455 099.0063 104.2518 0010177 105.9441 254.2830 14.13697217624365 SICH-1 1 23657U 95046A 07038.81019535 .00000196 00000-0 21947-4 0 09822 2 23657 082.5271 198.1369 0022721 311.2158 048.7098 14.81449035616875 NOAA-15 1 25338U 98030A 07038.52100866 .00000076 00000-0 51052-4 0 08705 2 25338 098.5272 038.8859 0011272 051.4472 308.7717 14.24625790454223 RESURS 1 25394U 98043A 07039.77640062 .00000021 00000-0 27237-4 0 5677 2 25394 098.4566 099.2796 0001030 170.7053 189.4145 14.24126866446075 FENGYUN1 1 25730U 99025A 07039.60693587 .00000615 00000-0 38115-3 0 9369 2 25730 098.6899 028.4015 0015077 120.6216 239.6457 14.08704658399376 OKEAN-0 1 25860U 99039A 07038.79646321 .00000068 00000-0 17628-4 0 09731 2 25860 097.7305 047.0945 0001936 075.6883 284.4551 14.73428736406441 NOAA-16 1 26536U 00055A 07038.48225949 .00000261 00000-0 16646-3 0 02766 2 26536 099.1022 013.2669 0010698 174.5576 185.5730 14.12403889328791 NOAA-17 1 27453U 02032A 07038.51731654 .00000212 00000-0 11135-3 0 02923 2 27453 098.5948 110.8547 0012699 111.2013 249.0534 14.23852515240265 NOAA-18 1 28654U 05018A 07039.27067784 .00000006 00000-0 27562-4 0 8372 2 28654 098.8171 342.8052 0013520 273.7194 086.2445 14.11034106 88678 HUBBLE 1 20580U 90037B 07038.94749382 .00000477 00000-0 24250-4 0 08385 2 20580 028.4694 312.8414 0003805 165.7629 194.3067 15.00187670720537 UARS 1 21701U 91063B 07039.79337801 .00005505 00000-0 10085-3 0 9900 2 21701 056.9759 150.5231 0091166 306.5846 052.6846 15.46627911845871 PO-34 1 25520U 98064B 07039.88542762 .00000551 00000-0 17479-4 0 6701 2 25520 028.4598 247.4136 0005034 296.2234 063.7849 15.16921354458022 ISS 1 25544U 98067A 07039.84381418 .00020476 00000-0 11965-3 0 6054 2 25544 051.6355 047.2563 0021841 183.6119 237.7525 15.78038612470507 OO-38 1 26063U 00004C 07039.53026650 -.00000026 00000-0 11435-4 0 8342 2 26063 100.2178 018.4337 0037078 161.3463 198.9090 14.35794939368583 NO-45 1 26932U 01043D 07038.72229272 .00000084 00000-0 65292-4 0 05379 2 26932 067.0570 120.7270 0003911 285.4863 074.5805 14.29549285279633 UWE-1 1 28892U 05043C 07038.22582832 .00000132 00000-0 37419-4 0 06723 2 28892 098.1444 297.3529 0017634 154.8652 205.3434 14.59461743068256 CO-58 1 28895U 05043F 07037.45472078 .00000070 00000-0 24421-4 0 06539 2 28895 098.1493 296.7593 0018559 157.5801 202.6192 14.59510609068022 NCUBE2 1 28897U 05043H 07038.64072727 .00000159 00000-0 43130-4 0 1812 2 28897 098.1477 297.8923 0017706 155.2022 205.0036 14.59671116 60474 NMARS 1 29662U 06055D 07038.94674836 .00074244 00000-0 26423-3 0 00684 2 29662 051.6424 048.8670 0009387 188.0146 172.0883 15.88184265007652 FCAL 1 29664U 06055F 07038.95064024 .00023517 00000-0 10475-3 0 00518 2 29664 051.6366 049.6262 0014521 193.0838 166.9877 15.84040046007621 /EX